Regional Weather Roundup
Issued by NWS

Home | Current Version | Previous Version | Graphics & Text | Print | Product List | Glossary Off
Versions: 1 2 3 4 5 6 7 8 9 10 11 12 13 14 15 16 17 18 19 20 21 22 23 24 25 26 27 28 29 30 31 32 33 34 35 36 37 38 39 40 41 42 43 44 45 46 47 48 49 50

000
ASUS43 KLSX 192110
RWRMO

WEATHER SUMMARY FOR MISSOURI
NATIONAL WEATHER SERVICE SPRINGFIELD MO
300 PM CST SUN FEB 19 2017

NOTE: "FAIR" INDICATES FEW OR NO CLOUDS BELOW 12,000 FEET WITH NO
       SIGNIFICANT WEATHER AND/OR OBSTRUCTIONS TO VISIBILITY.
       CURRENT SKY AND/OR WEATHER CONDITIONS ARE NOT AVAILABLE FOR
       CHILLICOTHE AND FARMINGTON.

MOZ001>031-035>038-043-044-053-054-192200-
...NORTHERN AND WESTERN MISSOURI...

CITY           SKY/WX    TMP DP  RH WIND       PRES   REMARKS
KANSAS CTY INT PTSUNNY   73  54  51 S15       29.89F
KANSAS C DTWN  SUNNY     76  54  46 S12       29.88F
LEE`S SUMMIT   SUNNY     75  54  47 S17G23    29.90F
ST JOSEPH      MOSUNNY   73  53  49 S20       29.87F
CHILLICOTHE      N/A     73  50  44 S13G18    29.92F
KIRKSVILLE     MOSUNNY   72  48  42 S12       29.96F

$$
MOZ066>068-077>081-088>096-101>105-192200-
...SOUTHWEST MISSOURI...

CITY           SKY/WX    TMP DP  RH WIND       PRES   REMARKS
SPRINGFIELD    SUNNY     73  56  54 SE13      29.95F
JOPLIN         SUNNY     77  55  46 S10       29.91F
BRANSON        PTSUNNY   75  57  53 SE10      29.97F

$$
MOZ032>034-039>042-045>050-055>058-069>072-192200-
...CENTRAL MISSOURI...

CITY           SKY/WX    TMP DP  RH WIND       PRES   REMARKS
COLUMBIA       MOSUNNY   75  49  39 S14G21    29.97F
JEFFERSON CITY MOSUNNY   76  48  37 SE14      29.96F
ROLLA          SUNNY     75  47  36 S12       29.98S
SEDALIA        SUNNY     78  45  30 S15       29.94F
WHITEMAN AFB   SUNNY     76  48  37 S14       29.91F
WARRENSBURG    SUNNY     73  48  40 S7        29.91F
OSAGE BEACH    SUNNY     77  49  37 S7G16     29.96F

$$
MOZ051-052-059>065-192200-
...EAST CENTRAL MISSOURI...

CITY           SKY/WX    TMP DP  RH WIND       PRES   REMARKS
ST LOUIS INTL  MOSUNNY   71  51  49 SE10      30.03F
SPIRIT OF STL  PTSUNNY   73  51  46 E10       30.00F
ST CHARLES     SUNNY     71  50  47 SE13      30.02S

$$
MOZ072>076-082>087-097>100-106>115-192200-
...SOUTH CENTRAL AND SOUTHEAST MISSOURI...

CITY           SKY/WX    TMP DP  RH WIND       PRES   REMARKS
CAPE GIRARDEAU MOSUNNY   59  54  83 SE9       30.08S
FARMINGTON     SUNNY     72  49  44 S13       30.04S
POPLAR BLUFF   SUNNY     67  58  72 S5        30.05F
WEST PLAINS    CLOUDY    65  56  72 SE9       30.04F

$$




USA.gov is the U.S. government's official web portal to all federal, state and local government web resources and services.